Regional Weather Roundup
Issued by NWS

Home | Current Version | Previous Version | Graphics & Text | Print | Product List | Glossary On
Versions: 1 2 3 4 5 6 7 8 9 10 11 12 13 14 15 16 17 18 19 20 21 22 23 24 25 26 27 28 29 30 31 32 33 34 35 36 37 38 39 40 41 42 43 44 45 46 47 48 49 50
000
ASUS43 KFSD 250610
RWRSD

WEATHER ROUNDUP FOR SOUTH DAKOTA
NATIONAL WEATHER SERVICE SIOUX FALLS SD
100 AM CDT SUN SEP 25 2016

NOTE: "FAIR" INDICATES FEW OR NO CLOUDS BELOW 12,000 FEET WITH NO
SIGNIFICANT WEATHER AND/OR OBSTRUCTIONS TO VISIBILITY.


SDZ001>005-009-010-012>017-250700-
NORTHWEST AND NORTH CENTRAL SOUTH DAKOTA

CITY           SKY/WX    TMP DP  RH WIND       PRES   REMARKS
BUFFALO          N/A     50  47  89 NW36G46   29.95R
FAITH            N/A     52  48  86 NW38G55   29.91R
MOBRIDGE       CLOUDY    56  47  71 S14       29.76F
$$

SDZ012>016-024>037-041>051-057-063-072>074-250700-
SOUTHWEST AND SOUTH CENTRAL SOUTH DAKOTA

CITY           SKY/WX    TMP DP  RH WIND       PRES   REMARKS
RAPID CTY ARPT CLOUDY    55  39  54 NW21      30.07R
PIERRE         MOCLDY    55  47  74 W22G29    29.91F
CUSTER         CLOUDY    44  35  70 NW22G36   30.15R
ELLSWORTH AFB  CLOUDY    55  40  58 NW33G47   30.06R
PHILIP         CLOUDY    57  45  64 W28G38    30.02R
PINE RIDGE     CLOUDY    53  42  66 W23G31    30.13R
WINNER         FAIR      55  42  61 W10       30.01R
$$

SDZ004>011-016>023-039-040-250700-
NORTHEAST SOUTH DAKOTA

CITY           SKY/WX    TMP DP  RH WIND       PRES   REMARKS
ABERDEEN       CLEAR     53  45  74 SW12      29.85S
WATERTOWN      PTCLDY    62  53  72 W20G25    29.89R
BROOKINGS      CLOUDY    64  64 100 SW10      29.89  FOG
SISSETON         N/A     64  63  96 SW7       29.82F
$$

SDZ017-020-022-023-036>040-048>070-250700-
SOUTHEAST SOUTH DAKOTA

CITY           SKY/WX    TMP DP  RH WIND       PRES   REMARKS
SIOUX FALLS    MOCLDY    69  67  93 S7        29.91S
HURON          CLEAR     55  44  66 W13       29.91S
CHAMBERLAIN    CLEAR     56  45  66 W9G16     29.97S
MITCHELL       CLEAR     58  45  62 W9        29.95R
YANKTON        CLOUDY    63  50  63 W10G16    29.94R
$$

ABBREVIATIONS USED IN REMARKS
   TC - TEMPERATURE IN CELSIUS
  WCI - WIND CHILL INDEX
   HX - HEAT INDEX
  VSB - VISIBILITY





USA.gov is the U.S. government's official web portal to all federal, state and local government web resources and services.